Index of /20260428/WXO-DD/model_caps/3km/00/028
Name Last modified Size Description
Parent Directory -
20260428T00Z_MSC_CAPS_AbsoluteVorticity_IsbL-0250_RLatLon0.03_PT028H.grib2 2026-04-28 06:15 1.0M
20260428T00Z_MSC_CAPS_AbsoluteVorticity_IsbL-0500_RLatLon0.03_PT028H.grib2 2026-04-28 06:15 1.1M
20260428T00Z_MSC_CAPS_AbsoluteVorticity_IsbL-0700_RLatLon0.03_PT028H.grib2 2026-04-28 06:15 1.0M
20260428T00Z_MSC_CAPS_AbsoluteVorticity_IsbL-0850_RLatLon0.03_PT028H.grib2 2026-04-28 06:15 1.2M
20260428T00Z_MSC_CAPS_AbsoluteVorticity_IsbL-1000_RLatLon0.03_PT028H.grib2 2026-04-28 06:15 1.3M
20260428T00Z_MSC_CAPS_AirDensity_AGL-120m_RLatLon0.03_PT028H.grib2 2026-04-28 06:15 1.4M
20260428T00Z_MSC_CAPS_AirDensity_AGL-40m_RLatLon0.03_PT028H.grib2 2026-04-28 06:15 1.4M
20260428T00Z_MSC_CAPS_AirDensity_AGL-80m_RLatLon0.03_PT028H.grib2 2026-04-28 06:15 1.4M
20260428T00Z_MSC_CAPS_AirTemp_AGL-120m_RLatLon0.03_PT028H.grib2 2026-04-28 06:15 1.7M
20260428T00Z_MSC_CAPS_AirTemp_AGL-2m_RLatLon0.03_PT028H.grib2 2026-04-28 06:15 2.1M
20260428T00Z_MSC_CAPS_AirTemp_AGL-40m_RLatLon0.03_PT028H.grib2 2026-04-28 06:15 1.8M
20260428T00Z_MSC_CAPS_AirTemp_AGL-80m_RLatLon0.03_PT028H.grib2 2026-04-28 06:15 1.8M
20260428T00Z_MSC_CAPS_AirTemp_IsbL-0050_RLatLon0.03_PT028H.grib2 2026-04-28 06:15 693K
20260428T00Z_MSC_CAPS_AirTemp_IsbL-0100_RLatLon0.03_PT028H.grib2 2026-04-28 06:15 962K
20260428T00Z_MSC_CAPS_AirTemp_IsbL-0150_RLatLon0.03_PT028H.grib2 2026-04-28 06:15 752K
20260428T00Z_MSC_CAPS_AirTemp_IsbL-0175_RLatLon0.03_PT028H.grib2 2026-04-28 06:15 769K
20260428T00Z_MSC_CAPS_AirTemp_IsbL-0200_RLatLon0.03_PT028H.grib2 2026-04-28 06:15 786K
20260428T00Z_MSC_CAPS_AirTemp_IsbL-0225_RLatLon0.03_PT028H.grib2 2026-04-28 06:15 787K
20260428T00Z_MSC_CAPS_AirTemp_IsbL-0250_RLatLon0.03_PT028H.grib2 2026-04-28 06:15 1.0M
20260428T00Z_MSC_CAPS_AirTemp_IsbL-0275_RLatLon0.03_PT028H.grib2 2026-04-28 06:15 1.0M
20260428T00Z_MSC_CAPS_AirTemp_IsbL-0300_RLatLon0.03_PT028H.grib2 2026-04-28 06:15 1.0M
20260428T00Z_MSC_CAPS_AirTemp_IsbL-0350_RLatLon0.03_PT028H.grib2 2026-04-28 06:15 1.0M
20260428T00Z_MSC_CAPS_AirTemp_IsbL-0400_RLatLon0.03_PT028H.grib2 2026-04-28 06:15 752K
20260428T00Z_MSC_CAPS_AirTemp_IsbL-0450_RLatLon0.03_PT028H.grib2 2026-04-28 06:15 765K
20260428T00Z_MSC_CAPS_AirTemp_IsbL-0500_RLatLon0.03_PT028H.grib2 2026-04-28 06:15 783K
20260428T00Z_MSC_CAPS_AirTemp_IsbL-0550_RLatLon0.03_PT028H.grib2 2026-04-28 06:15 798K
20260428T00Z_MSC_CAPS_AirTemp_IsbL-0600_RLatLon0.03_PT028H.grib2 2026-04-28 06:15 811K
20260428T00Z_MSC_CAPS_AirTemp_IsbL-0650_RLatLon0.03_PT028H.grib2 2026-04-28 06:15 832K
20260428T00Z_MSC_CAPS_AirTemp_IsbL-0700_RLatLon0.03_PT028H.grib2 2026-04-28 06:15 1.0M
20260428T00Z_MSC_CAPS_AirTemp_IsbL-0750_RLatLon0.03_PT028H.grib2 2026-04-28 06:15 1.0M
20260428T00Z_MSC_CAPS_AirTemp_IsbL-0800_RLatLon0.03_PT028H.grib2 2026-04-28 06:15 1.0M
20260428T00Z_MSC_CAPS_AirTemp_IsbL-0850_RLatLon0.03_PT028H.grib2 2026-04-28 06:15 1.1M
20260428T00Z_MSC_CAPS_AirTemp_IsbL-0875_RLatLon0.03_PT028H.grib2 2026-04-28 06:15 1.1M
20260428T00Z_MSC_CAPS_AirTemp_IsbL-0900_RLatLon0.03_PT028H.grib2 2026-04-28 06:15 1.1M
20260428T00Z_MSC_CAPS_AirTemp_IsbL-0925_RLatLon0.03_PT028H.grib2 2026-04-28 06:15 1.1M
20260428T00Z_MSC_CAPS_AirTemp_IsbL-0950_RLatLon0.03_PT028H.grib2 2026-04-28 06:15 1.1M
20260428T00Z_MSC_CAPS_AirTemp_IsbL-0970_RLatLon0.03_PT028H.grib2 2026-04-28 06:15 1.2M
20260428T00Z_MSC_CAPS_AirTemp_IsbL-0985_RLatLon0.03_PT028H.grib2 2026-04-28 06:15 1.1M
20260428T00Z_MSC_CAPS_AirTemp_IsbL-1000_RLatLon0.03_PT028H.grib2 2026-04-28 06:15 1.1M
20260428T00Z_MSC_CAPS_AirTemp_IsbL-1015_RLatLon0.03_PT028H.grib2 2026-04-28 06:15 1.0M
20260428T00Z_MSC_CAPS_Albedo_Sfc_RLatLon0.03_PT028H.grib2 2026-04-28 06:15 2.7M
20260428T00Z_MSC_CAPS_CAPE_Sfc_RLatLon0.03_PT028H.grib2 2026-04-28 06:15 92K
20260428T00Z_MSC_CAPS_CloudWater_EAtm_RLatLon0.03_PT028H.grib2 2026-04-28 06:15 1.4M
20260428T00Z_MSC_CAPS_ConvectivePrecip-Accum_Sfc_RLatLon0.03_PT028H.grib2 2026-04-28 06:15 3.8M
20260428T00Z_MSC_CAPS_DewPointDepression_AGL-120m_RLatLon0.03_PT028H.grib2 2026-04-28 06:15 2.1M
20260428T00Z_MSC_CAPS_DewPointDepression_AGL-2m_RLatLon0.03_PT028H.grib2 2026-04-28 06:15 2.2M
20260428T00Z_MSC_CAPS_DewPointDepression_AGL-40m_RLatLon0.03_PT028H.grib2 2026-04-28 06:15 2.1M
20260428T00Z_MSC_CAPS_DewPointDepression_AGL-80m_RLatLon0.03_PT028H.grib2 2026-04-28 06:15 2.1M
20260428T00Z_MSC_CAPS_DewPointDepression_IsbL-0050_RLatLon0.03_PT028H.grib2 2026-04-28 06:15 193
20260428T00Z_MSC_CAPS_DewPointDepression_IsbL-0100_RLatLon0.03_PT028H.grib2 2026-04-28 06:15 129K
20260428T00Z_MSC_CAPS_DewPointDepression_IsbL-0150_RLatLon0.03_PT028H.grib2 2026-04-28 06:15 126K
20260428T00Z_MSC_CAPS_DewPointDepression_IsbL-0175_RLatLon0.03_PT028H.grib2 2026-04-28 06:15 198K
20260428T00Z_MSC_CAPS_DewPointDepression_IsbL-0200_RLatLon0.03_PT028H.grib2 2026-04-28 06:15 368K
20260428T00Z_MSC_CAPS_DewPointDepression_IsbL-0225_RLatLon0.03_PT028H.grib2 2026-04-28 06:15 681K
20260428T00Z_MSC_CAPS_DewPointDepression_IsbL-0250_RLatLon0.03_PT028H.grib2 2026-04-28 06:15 896K
20260428T00Z_MSC_CAPS_DewPointDepression_IsbL-0275_RLatLon0.03_PT028H.grib2 2026-04-28 06:15 1.0M
20260428T00Z_MSC_CAPS_DewPointDepression_IsbL-0300_RLatLon0.03_PT028H.grib2 2026-04-28 06:15 1.1M
20260428T00Z_MSC_CAPS_DewPointDepression_IsbL-0350_RLatLon0.03_PT028H.grib2 2026-04-28 06:15 1.1M
20260428T00Z_MSC_CAPS_DewPointDepression_IsbL-0400_RLatLon0.03_PT028H.grib2 2026-04-28 06:15 1.1M
20260428T00Z_MSC_CAPS_DewPointDepression_IsbL-0450_RLatLon0.03_PT028H.grib2 2026-04-28 06:15 1.1M
20260428T00Z_MSC_CAPS_DewPointDepression_IsbL-0500_RLatLon0.03_PT028H.grib2 2026-04-28 06:15 1.2M
20260428T00Z_MSC_CAPS_DewPointDepression_IsbL-0550_RLatLon0.03_PT028H.grib2 2026-04-28 06:15 1.2M
20260428T00Z_MSC_CAPS_DewPointDepression_IsbL-0600_RLatLon0.03_PT028H.grib2 2026-04-28 06:15 1.2M
20260428T00Z_MSC_CAPS_DewPointDepression_IsbL-0650_RLatLon0.03_PT028H.grib2 2026-04-28 06:15 1.3M
20260428T00Z_MSC_CAPS_DewPointDepression_IsbL-0700_RLatLon0.03_PT028H.grib2 2026-04-28 06:15 1.3M
20260428T00Z_MSC_CAPS_DewPointDepression_IsbL-0750_RLatLon0.03_PT028H.grib2 2026-04-28 06:15 1.3M
20260428T00Z_MSC_CAPS_DewPointDepression_IsbL-0800_RLatLon0.03_PT028H.grib2 2026-04-28 06:15 1.3M
20260428T00Z_MSC_CAPS_DewPointDepression_IsbL-0850_RLatLon0.03_PT028H.grib2 2026-04-28 06:15 1.4M
20260428T00Z_MSC_CAPS_DewPointDepression_IsbL-0875_RLatLon0.03_PT028H.grib2 2026-04-28 06:15 1.4M
20260428T00Z_MSC_CAPS_DewPointDepression_IsbL-0900_RLatLon0.03_PT028H.grib2 2026-04-28 06:15 1.4M
20260428T00Z_MSC_CAPS_DewPointDepression_IsbL-0925_RLatLon0.03_PT028H.grib2 2026-04-28 06:15 1.4M
20260428T00Z_MSC_CAPS_DewPointDepression_IsbL-0950_RLatLon0.03_PT028H.grib2 2026-04-28 06:15 1.3M
20260428T00Z_MSC_CAPS_DewPointDepression_IsbL-0970_RLatLon0.03_PT028H.grib2 2026-04-28 06:15 1.3M
20260428T00Z_MSC_CAPS_DewPointDepression_IsbL-0985_RLatLon0.03_PT028H.grib2 2026-04-28 06:15 1.3M
20260428T00Z_MSC_CAPS_DewPointDepression_IsbL-1000_RLatLon0.03_PT028H.grib2 2026-04-28 06:15 1.3M
20260428T00Z_MSC_CAPS_DewPointDepression_IsbL-1015_RLatLon0.03_PT028H.grib2 2026-04-28 06:15 1.3M
20260428T00Z_MSC_CAPS_DewPoint_AGL-120m_RLatLon0.03_PT028H.grib2 2026-04-28 06:15 3.6M
20260428T00Z_MSC_CAPS_DewPoint_AGL-2m_RLatLon0.03_PT028H.grib2 2026-04-28 06:15 2.2M
20260428T00Z_MSC_CAPS_DewPoint_AGL-40m_RLatLon0.03_PT028H.grib2 2026-04-28 06:15 3.7M
20260428T00Z_MSC_CAPS_DewPoint_AGL-80m_RLatLon0.03_PT028H.grib2 2026-04-28 06:15 3.7M
20260428T00Z_MSC_CAPS_DownwardLongwaveRadiationFlux-Accum_Sfc_RLatLon0.03_PT028H.grib2 2026-04-28 06:15 2.4M
20260428T00Z_MSC_CAPS_DownwardShortwaveRadiationFlux-Accum_NTAtm_RLatLon0.03_PT028H.grib2 2026-04-28 06:15 439K
20260428T00Z_MSC_CAPS_DownwardShortwaveRadiationFlux-Accum_Sfc_RLatLon0.03_PT028H.grib2 2026-04-28 06:15 2.8M
20260428T00Z_MSC_CAPS_FreezingRain-Accum_Sfc_RLatLon0.03_PT028H.grib2 2026-04-28 06:15 836K
20260428T00Z_MSC_CAPS_GeopotentialHeight_IsbL-0050_RLatLon0.03_PT028H.grib2 2026-04-28 06:15 646K
20260428T00Z_MSC_CAPS_GeopotentialHeight_IsbL-0100_RLatLon0.03_PT028H.grib2 2026-04-28 06:15 764K
20260428T00Z_MSC_CAPS_GeopotentialHeight_IsbL-0150_RLatLon0.03_PT028H.grib2 2026-04-28 06:15 724K
20260428T00Z_MSC_CAPS_GeopotentialHeight_IsbL-0175_RLatLon0.03_PT028H.grib2 2026-04-28 06:15 734K
20260428T00Z_MSC_CAPS_GeopotentialHeight_IsbL-0200_RLatLon0.03_PT028H.grib2 2026-04-28 06:15 740K
20260428T00Z_MSC_CAPS_GeopotentialHeight_IsbL-0225_RLatLon0.03_PT028H.grib2 2026-04-28 06:15 750K
20260428T00Z_MSC_CAPS_GeopotentialHeight_IsbL-0250_RLatLon0.03_PT028H.grib2 2026-04-28 06:15 757K
20260428T00Z_MSC_CAPS_GeopotentialHeight_IsbL-0275_RLatLon0.03_PT028H.grib2 2026-04-28 06:15 766K
20260428T00Z_MSC_CAPS_GeopotentialHeight_IsbL-0300_RLatLon0.03_PT028H.grib2 2026-04-28 06:15 774K
20260428T00Z_MSC_CAPS_GeopotentialHeight_IsbL-0350_RLatLon0.03_PT028H.grib2 2026-04-28 06:15 773K
20260428T00Z_MSC_CAPS_GeopotentialHeight_IsbL-0400_RLatLon0.03_PT028H.grib2 2026-04-28 06:15 769K
20260428T00Z_MSC_CAPS_GeopotentialHeight_IsbL-0450_RLatLon0.03_PT028H.grib2 2026-04-28 06:15 762K
20260428T00Z_MSC_CAPS_GeopotentialHeight_IsbL-0500_RLatLon0.03_PT028H.grib2 2026-04-28 06:15 753K
20260428T00Z_MSC_CAPS_GeopotentialHeight_IsbL-0550_RLatLon0.03_PT028H.grib2 2026-04-28 06:15 742K
20260428T00Z_MSC_CAPS_GeopotentialHeight_IsbL-0600_RLatLon0.03_PT028H.grib2 2026-04-28 06:15 628K
20260428T00Z_MSC_CAPS_GeopotentialHeight_IsbL-0650_RLatLon0.03_PT028H.grib2 2026-04-28 06:15 629K
20260428T00Z_MSC_CAPS_GeopotentialHeight_IsbL-0700_RLatLon0.03_PT028H.grib2 2026-04-28 06:15 798K
20260428T00Z_MSC_CAPS_GeopotentialHeight_IsbL-0750_RLatLon0.03_PT028H.grib2 2026-04-28 06:15 801K
20260428T00Z_MSC_CAPS_GeopotentialHeight_IsbL-0800_RLatLon0.03_PT028H.grib2 2026-04-28 06:15 808K
20260428T00Z_MSC_CAPS_GeopotentialHeight_IsbL-0850_RLatLon0.03_PT028H.grib2 2026-04-28 06:15 891K
20260428T00Z_MSC_CAPS_GeopotentialHeight_IsbL-0875_RLatLon0.03_PT028H.grib2 2026-04-28 06:15 899K
20260428T00Z_MSC_CAPS_GeopotentialHeight_IsbL-0900_RLatLon0.03_PT028H.grib2 2026-04-28 06:15 908K
20260428T00Z_MSC_CAPS_GeopotentialHeight_IsbL-0925_RLatLon0.03_PT028H.grib2 2026-04-28 06:15 916K
20260428T00Z_MSC_CAPS_GeopotentialHeight_IsbL-0950_RLatLon0.03_PT028H.grib2 2026-04-28 06:15 927K
20260428T00Z_MSC_CAPS_GeopotentialHeight_IsbL-0970_RLatLon0.03_PT028H.grib2 2026-04-28 06:15 938K
20260428T00Z_MSC_CAPS_GeopotentialHeight_IsbL-0985_RLatLon0.03_PT028H.grib2 2026-04-28 06:15 947K
20260428T00Z_MSC_CAPS_GeopotentialHeight_IsbL-1000_RLatLon0.03_PT028H.grib2 2026-04-28 06:15 957K
20260428T00Z_MSC_CAPS_GeopotentialHeight_IsbL-1015_RLatLon0.03_PT028H.grib2 2026-04-28 06:15 968K
20260428T00Z_MSC_CAPS_GeopotentialHeight_Sfc_RLatLon0.03_PT028H.grib2 2026-04-28 06:15 1.0M
20260428T00Z_MSC_CAPS_IcePellets-Accum_Sfc_RLatLon0.03_PT028H.grib2 2026-04-28 06:15 54K
20260428T00Z_MSC_CAPS_LatentHeatNetFlux_Sfc_RLatLon0.03_PT028H.grib2 2026-04-28 06:15 2.1M
20260428T00Z_MSC_CAPS_LiftedIndex-MU-VT_IsbL-0500_RLatLon0.03_PT028H.grib2 2026-04-28 06:15 3.3M
20260428T00Z_MSC_CAPS_MixedLayerThickness_Sfc_RLatLon0.03_PT028H.nc 2026-04-28 06:11 17M
20260428T00Z_MSC_CAPS_NetLongwaveRadiationFlux-Accum_Sfc_RLatLon0.03_PT028H.grib2 2026-04-28 06:15 2.6M
20260428T00Z_MSC_CAPS_NetShortwaveRadiationFlux-Accum_Sfc_RLatLon0.03_PT028H.grib2 2026-04-28 06:15 2.7M
20260428T00Z_MSC_CAPS_PlanetaryBoundaryLayerHeight_Sfc_RLatLon0.03_PT028H.grib2 2026-04-28 06:15 2.7M
20260428T00Z_MSC_CAPS_Precip-Accum_Sfc_RLatLon0.03_PT028H.grib2 2026-04-28 06:15 4.6M
20260428T00Z_MSC_CAPS_PrecipRate_Sfc_RLatLon0.03_PT028H.grib2 2026-04-28 06:15 568K
20260428T00Z_MSC_CAPS_PrecipType-Instant_Sfc_RLatLon0.03_PT028H.grib2 2026-04-28 06:15 2.0M
20260428T00Z_MSC_CAPS_Pressure_MSL_RLatLon0.03_PT028H.grib2 2026-04-28 06:15 764K
20260428T00Z_MSC_CAPS_Pressure_Sfc_RLatLon0.03_PT028H.grib2 2026-04-28 06:15 1.2M
20260428T00Z_MSC_CAPS_RadiativeTemp_Sfc_RLatLon0.03_PT028H.grib2 2026-04-28 06:15 2.1M
20260428T00Z_MSC_CAPS_Rain-Accum_Sfc_RLatLon0.03_PT028H.grib2 2026-04-28 06:15 1.9M
20260428T00Z_MSC_CAPS_RelativeHumidity_AGL-120m_RLatLon0.03_PT028H.grib2 2026-04-28 06:15 2.8M
20260428T00Z_MSC_CAPS_RelativeHumidity_AGL-2m_RLatLon0.03_PT028H.grib2 2026-04-28 06:15 2.9M
20260428T00Z_MSC_CAPS_RelativeHumidity_AGL-40m_RLatLon0.03_PT028H.grib2 2026-04-28 06:15 2.9M
20260428T00Z_MSC_CAPS_RelativeHumidity_AGL-80m_RLatLon0.03_PT028H.grib2 2026-04-28 06:15 2.8M
20260428T00Z_MSC_CAPS_RelativeHumidity_IsbL-0050_RLatLon0.03_PT028H.grib2 2026-04-28 06:15 1.0M
20260428T00Z_MSC_CAPS_RelativeHumidity_IsbL-0100_RLatLon0.03_PT028H.grib2 2026-04-28 06:15 902K
20260428T00Z_MSC_CAPS_RelativeHumidity_IsbL-0150_RLatLon0.03_PT028H.grib2 2026-04-28 06:15 758K
20260428T00Z_MSC_CAPS_RelativeHumidity_IsbL-0175_RLatLon0.03_PT028H.grib2 2026-04-28 06:15 500K
20260428T00Z_MSC_CAPS_RelativeHumidity_IsbL-0200_RLatLon0.03_PT028H.grib2 2026-04-28 06:15 668K
20260428T00Z_MSC_CAPS_RelativeHumidity_IsbL-0225_RLatLon0.03_PT028H.grib2 2026-04-28 06:15 892K
20260428T00Z_MSC_CAPS_RelativeHumidity_IsbL-0250_RLatLon0.03_PT028H.grib2 2026-04-28 06:15 1.1M
20260428T00Z_MSC_CAPS_RelativeHumidity_IsbL-0275_RLatLon0.03_PT028H.grib2 2026-04-28 06:15 1.4M
20260428T00Z_MSC_CAPS_RelativeHumidity_IsbL-0300_RLatLon0.03_PT028H.grib2 2026-04-28 06:15 1.6M
20260428T00Z_MSC_CAPS_RelativeHumidity_IsbL-0350_RLatLon0.03_PT028H.grib2 2026-04-28 06:15 1.8M
20260428T00Z_MSC_CAPS_RelativeHumidity_IsbL-0400_RLatLon0.03_PT028H.grib2 2026-04-28 06:15 1.9M
20260428T00Z_MSC_CAPS_RelativeHumidity_IsbL-0450_RLatLon0.03_PT028H.grib2 2026-04-28 06:15 2.0M
20260428T00Z_MSC_CAPS_RelativeHumidity_IsbL-0500_RLatLon0.03_PT028H.grib2 2026-04-28 06:15 2.0M
20260428T00Z_MSC_CAPS_RelativeHumidity_IsbL-0550_RLatLon0.03_PT028H.grib2 2026-04-28 06:15 2.2M
20260428T00Z_MSC_CAPS_RelativeHumidity_IsbL-0600_RLatLon0.03_PT028H.grib2 2026-04-28 06:15 2.2M
20260428T00Z_MSC_CAPS_RelativeHumidity_IsbL-0650_RLatLon0.03_PT028H.grib2 2026-04-28 06:15 2.3M
20260428T00Z_MSC_CAPS_RelativeHumidity_IsbL-0700_RLatLon0.03_PT028H.grib2 2026-04-28 06:15 2.3M
20260428T00Z_MSC_CAPS_RelativeHumidity_IsbL-0750_RLatLon0.03_PT028H.grib2 2026-04-28 06:15 2.4M
20260428T00Z_MSC_CAPS_RelativeHumidity_IsbL-0800_RLatLon0.03_PT028H.grib2 2026-04-28 06:15 2.4M
20260428T00Z_MSC_CAPS_RelativeHumidity_IsbL-0850_RLatLon0.03_PT028H.grib2 2026-04-28 06:15 2.5M
20260428T00Z_MSC_CAPS_RelativeHumidity_IsbL-0875_RLatLon0.03_PT028H.grib2 2026-04-28 06:15 2.5M
20260428T00Z_MSC_CAPS_RelativeHumidity_IsbL-0900_RLatLon0.03_PT028H.grib2 2026-04-28 06:15 2.5M
20260428T00Z_MSC_CAPS_RelativeHumidity_IsbL-0925_RLatLon0.03_PT028H.grib2 2026-04-28 06:15 2.6M
20260428T00Z_MSC_CAPS_RelativeHumidity_IsbL-0950_RLatLon0.03_PT028H.grib2 2026-04-28 06:15 2.6M
20260428T00Z_MSC_CAPS_RelativeHumidity_IsbL-0970_RLatLon0.03_PT028H.grib2 2026-04-28 06:15 2.7M
20260428T00Z_MSC_CAPS_RelativeHumidity_IsbL-0985_RLatLon0.03_PT028H.grib2 2026-04-28 06:15 2.8M
20260428T00Z_MSC_CAPS_RelativeHumidity_IsbL-1000_RLatLon0.03_PT028H.grib2 2026-04-28 06:15 2.9M
20260428T00Z_MSC_CAPS_RelativeHumidity_IsbL-1015_RLatLon0.03_PT028H.grib2 2026-04-28 06:15 2.9M
20260428T00Z_MSC_CAPS_Runoff-Accum_Sfc_RLatLon0.03_PT028H.grib2 2026-04-28 06:15 277K
20260428T00Z_MSC_CAPS_SeaIceAreaFraction_Sfc_RLatLon0.03_PT028H.nc 2026-04-28 06:11 15M
20260428T00Z_MSC_CAPS_SeaIceCompressiveStrength_Sfc_RLatLon0.03_PT028H.nc 2026-04-28 06:11 15M
20260428T00Z_MSC_CAPS_SeaIceDivergence_Sfc_RLatLon0.03_PT028H.nc 2026-04-28 06:11 15M
20260428T00Z_MSC_CAPS_SeaIceInternalPressure_Sfc_RLatLon0.03_PT028H.nc 2026-04-28 06:11 16M
20260428T00Z_MSC_CAPS_SeaIceShear_Sfc_RLatLon0.03_PT028H.nc 2026-04-28 06:11 14M
20260428T00Z_MSC_CAPS_SeaIceSnowTemp_Sfc_RLatLon0.03_PT028H.nc 2026-04-28 06:11 15M
20260428T00Z_MSC_CAPS_SeaIceSnowVolume_Sfc_RLatLon0.03_PT028H.nc 2026-04-28 06:11 15M
20260428T00Z_MSC_CAPS_SeaIceVelocityX_Sfc_RLatLon0.03_PT028H.nc 2026-04-28 06:11 15M
20260428T00Z_MSC_CAPS_SeaIceVelocityY_Sfc_RLatLon0.03_PT028H.nc 2026-04-28 06:11 15M
20260428T00Z_MSC_CAPS_SeaIceVolume_Sfc_RLatLon0.03_PT028H.nc 2026-04-28 06:11 15M
20260428T00Z_MSC_CAPS_SeaSurfaceHeight_Sfc_RLatLon0.03_PT028H.nc 2026-04-28 06:11 16M
20260428T00Z_MSC_CAPS_SeaWaterSalinity_DBS-0.5m_RLatLon0.03_PT028H.nc 2026-04-28 06:11 16M
20260428T00Z_MSC_CAPS_SeaWaterSalinity_DBS-all_RLatLon0.03_PT028H.nc 2026-04-28 06:12 107M
20260428T00Z_MSC_CAPS_SeaWaterTemp_DBS-0.5m_RLatLon0.03_PT028H.nc 2026-04-28 06:11 14M
20260428T00Z_MSC_CAPS_SeaWaterTemp_DBS-all_RLatLon0.03_PT028H.nc 2026-04-28 06:12 87M
20260428T00Z_MSC_CAPS_SeaWaterVelocityX_DBS-0.5m_RLatLon0.03_PT028H.nc 2026-04-28 06:11 17M
20260428T00Z_MSC_CAPS_SeaWaterVelocityX_DBS-all_RLatLon0.03_PT028H.nc 2026-04-28 06:12 200M
20260428T00Z_MSC_CAPS_SeaWaterVelocityY_DBS-0.5m_RLatLon0.03_PT028H.nc 2026-04-28 06:11 17M
20260428T00Z_MSC_CAPS_SeaWaterVelocityY_DBS-all_RLatLon0.03_PT028H.nc 2026-04-28 06:12 211M
20260428T00Z_MSC_CAPS_SensibleHeatNetFlux_Sfc_RLatLon0.03_PT028H.grib2 2026-04-28 06:15 2.0M
20260428T00Z_MSC_CAPS_ShowalterIndex_IsbL-0500_RLatLon0.03_PT028H.grib2 2026-04-28 06:15 4.3M
20260428T00Z_MSC_CAPS_Snow-Accum_Sfc_RLatLon0.03_PT028H.grib2 2026-04-28 06:15 3.8M
20260428T00Z_MSC_CAPS_SnowDensity_Sfc_RLatLon0.03_PT028H.grib2 2026-04-28 06:15 1.3M
20260428T00Z_MSC_CAPS_SnowDepthWaterEquivalent_Sfc_RLatLon0.03_PT028H.grib2 2026-04-28 06:15 720K
20260428T00Z_MSC_CAPS_SnowDepth_Sfc_RLatLon0.03_PT028H.grib2 2026-04-28 06:15 1.2M
20260428T00Z_MSC_CAPS_SoilTemp_DBS-0to10cm_RLatLon0.03_PT028H.grib2 2026-04-28 06:15 1.6M
20260428T00Z_MSC_CAPS_SoilTemp_Sfc_RLatLon0.03_PT028H.grib2 2026-04-28 06:15 1.8M
20260428T00Z_MSC_CAPS_SoilVolumetricIceContent_Sfc_RLatLon0.03_PT028H.grib2 2026-04-28 06:15 1.5M
20260428T00Z_MSC_CAPS_SoilVolumetricWaterContent_DBS-0to10cm_RLatLon0.03_PT028H.grib2 2026-04-28 06:15 1.2M
20260428T00Z_MSC_CAPS_SoilVolumetricWaterContent_DBS-0to1cm_RLatLon0.03_PT028H.grib2 2026-04-28 06:15 1.7M
20260428T00Z_MSC_CAPS_SpecificHumidity_AGL-120m_RLatLon0.03_PT028H.grib2 2026-04-28 06:15 1.7M
20260428T00Z_MSC_CAPS_SpecificHumidity_AGL-2m_RLatLon0.03_PT028H.grib2 2026-04-28 06:15 2.1M
20260428T00Z_MSC_CAPS_SpecificHumidity_AGL-40m_RLatLon0.03_PT028H.grib2 2026-04-28 06:15 1.8M
20260428T00Z_MSC_CAPS_SpecificHumidity_AGL-80m_RLatLon0.03_PT028H.grib2 2026-04-28 06:15 1.7M
20260428T00Z_MSC_CAPS_SpecificHumidity_IsbL-0050_RLatLon0.03_PT028H.grib2 2026-04-28 06:15 911K
20260428T00Z_MSC_CAPS_SpecificHumidity_IsbL-0100_RLatLon0.03_PT028H.grib2 2026-04-28 06:15 1.0M
20260428T00Z_MSC_CAPS_SpecificHumidity_IsbL-0150_RLatLon0.03_PT028H.grib2 2026-04-28 06:15 897K
20260428T00Z_MSC_CAPS_SpecificHumidity_IsbL-0175_RLatLon0.03_PT028H.grib2 2026-04-28 06:15 751K
20260428T00Z_MSC_CAPS_SpecificHumidity_IsbL-0200_RLatLon0.03_PT028H.grib2 2026-04-28 06:15 871K
20260428T00Z_MSC_CAPS_SpecificHumidity_IsbL-0225_RLatLon0.03_PT028H.grib2 2026-04-28 06:15 846K
20260428T00Z_MSC_CAPS_SpecificHumidity_IsbL-0250_RLatLon0.03_PT028H.grib2 2026-04-28 06:15 1.1M
20260428T00Z_MSC_CAPS_SpecificHumidity_IsbL-0275_RLatLon0.03_PT028H.grib2 2026-04-28 06:15 1.1M
20260428T00Z_MSC_CAPS_SpecificHumidity_IsbL-0300_RLatLon0.03_PT028H.grib2 2026-04-28 06:15 1.0M
20260428T00Z_MSC_CAPS_SpecificHumidity_IsbL-0350_RLatLon0.03_PT028H.grib2 2026-04-28 06:15 1.2M
20260428T00Z_MSC_CAPS_SpecificHumidity_IsbL-0400_RLatLon0.03_PT028H.grib2 2026-04-28 06:15 1.2M
20260428T00Z_MSC_CAPS_SpecificHumidity_IsbL-0450_RLatLon0.03_PT028H.grib2 2026-04-28 06:15 1.1M
20260428T00Z_MSC_CAPS_SpecificHumidity_IsbL-0500_RLatLon0.03_PT028H.grib2 2026-04-28 06:15 1.3M
20260428T00Z_MSC_CAPS_SpecificHumidity_IsbL-0550_RLatLon0.03_PT028H.grib2 2026-04-28 06:15 1.3M
20260428T00Z_MSC_CAPS_SpecificHumidity_IsbL-0600_RLatLon0.03_PT028H.grib2 2026-04-28 06:15 1.4M
20260428T00Z_MSC_CAPS_SpecificHumidity_IsbL-0650_RLatLon0.03_PT028H.grib2 2026-04-28 06:15 1.6M
20260428T00Z_MSC_CAPS_SpecificHumidity_IsbL-0700_RLatLon0.03_PT028H.grib2 2026-04-28 06:15 1.6M
20260428T00Z_MSC_CAPS_SpecificHumidity_IsbL-0750_RLatLon0.03_PT028H.grib2 2026-04-28 06:15 1.8M
20260428T00Z_MSC_CAPS_SpecificHumidity_IsbL-0800_RLatLon0.03_PT028H.grib2 2026-04-28 06:15 1.5M
20260428T00Z_MSC_CAPS_SpecificHumidity_IsbL-0850_RLatLon0.03_PT028H.grib2 2026-04-28 06:15 1.6M
20260428T00Z_MSC_CAPS_SpecificHumidity_IsbL-0875_RLatLon0.03_PT028H.grib2 2026-04-28 06:15 1.7M
20260428T00Z_MSC_CAPS_SpecificHumidity_IsbL-0900_RLatLon0.03_PT028H.grib2 2026-04-28 06:15 1.8M
20260428T00Z_MSC_CAPS_SpecificHumidity_IsbL-0925_RLatLon0.03_PT028H.grib2 2026-04-28 06:15 1.8M
20260428T00Z_MSC_CAPS_SpecificHumidity_IsbL-0950_RLatLon0.03_PT028H.grib2 2026-04-28 06:15 1.9M
20260428T00Z_MSC_CAPS_SpecificHumidity_IsbL-0970_RLatLon0.03_PT028H.grib2 2026-04-28 06:15 1.9M
20260428T00Z_MSC_CAPS_SpecificHumidity_IsbL-0985_RLatLon0.03_PT028H.grib2 2026-04-28 06:15 2.0M
20260428T00Z_MSC_CAPS_SpecificHumidity_IsbL-1000_RLatLon0.03_PT028H.grib2 2026-04-28 06:15 2.0M
20260428T00Z_MSC_CAPS_SpecificHumidity_IsbL-1015_RLatLon0.03_PT028H.grib2 2026-04-28 06:15 2.1M
20260428T00Z_MSC_CAPS_SpecificHumidity_Sfc_RLatLon0.03_PT028H.grib2 2026-04-28 06:15 2.5M
20260428T00Z_MSC_CAPS_StormRelativeHelicity_Sfc_RLatLon0.03_PT028H.grib2 2026-04-28 06:15 3.2M
20260428T00Z_MSC_CAPS_Thickness_IsbL-1000to0500_RLatLon0.03_PT028H.grib2 2026-04-28 06:15 425K
20260428T00Z_MSC_CAPS_TotalCloudCover_Sfc_RLatLon0.03_PT028H.grib2 2026-04-28 06:15 3.6M
20260428T00Z_MSC_CAPS_TurboclineDepth_Sfc_RLatLon0.03_PT028H.nc 2026-04-28 06:11 16M
20260428T00Z_MSC_CAPS_UpwardLongwaveRadiationFlux_NTAtm_RLatLon0.03_PT028H.grib2 2026-04-28 06:15 2.9M
20260428T00Z_MSC_CAPS_UpwardShortwaveRadiationFlux_NTAtm_RLatLon0.03_PT028H.grib2 2026-04-28 06:15 1.7M
20260428T00Z_MSC_CAPS_VerticalVelocity_IsbL-0250_RLatLon0.03_PT028H.grib2 2026-04-28 06:15 881K
20260428T00Z_MSC_CAPS_VerticalVelocity_IsbL-0500_RLatLon0.03_PT028H.grib2 2026-04-28 06:15 871K
20260428T00Z_MSC_CAPS_VerticalVelocity_IsbL-0700_RLatLon0.03_PT028H.grib2 2026-04-28 06:15 932K
20260428T00Z_MSC_CAPS_VerticalVelocity_IsbL-0850_RLatLon0.03_PT028H.grib2 2026-04-28 06:15 1.2M
20260428T00Z_MSC_CAPS_VerticalVelocity_IsbL-1000_RLatLon0.03_PT028H.grib2 2026-04-28 06:15 1.2M
20260428T00Z_MSC_CAPS_WindDir_AGL-10m_RLatLon0.03_PT028H.grib2 2026-04-28 06:15 2.4M
20260428T00Z_MSC_CAPS_WindDir_AGL-120m_RLatLon0.03_PT028H.grib2 2026-04-28 06:15 1.2M
20260428T00Z_MSC_CAPS_WindDir_AGL-40m_RLatLon0.03_PT028H.grib2 2026-04-28 06:15 1.3M
20260428T00Z_MSC_CAPS_WindDir_AGL-80m_RLatLon0.03_PT028H.grib2 2026-04-28 06:15 1.3M
20260428T00Z_MSC_CAPS_WindDir_IsbL-0050_RLatLon0.03_PT028H.grib2 2026-04-28 06:15 1.0M
20260428T00Z_MSC_CAPS_WindDir_IsbL-0100_RLatLon0.03_PT028H.grib2 2026-04-28 06:15 1.0M
20260428T00Z_MSC_CAPS_WindDir_IsbL-0150_RLatLon0.03_PT028H.grib2 2026-04-28 06:15 1.0M
20260428T00Z_MSC_CAPS_WindDir_IsbL-0175_RLatLon0.03_PT028H.grib2 2026-04-28 06:15 1.1M
20260428T00Z_MSC_CAPS_WindDir_IsbL-0200_RLatLon0.03_PT028H.grib2 2026-04-28 06:15 1.1M
20260428T00Z_MSC_CAPS_WindDir_IsbL-0225_RLatLon0.03_PT028H.grib2 2026-04-28 06:15 1.1M
20260428T00Z_MSC_CAPS_WindDir_IsbL-0250_RLatLon0.03_PT028H.grib2 2026-04-28 06:15 1.1M
20260428T00Z_MSC_CAPS_WindDir_IsbL-0275_RLatLon0.03_PT028H.grib2 2026-04-28 06:15 1.1M
20260428T00Z_MSC_CAPS_WindDir_IsbL-0300_RLatLon0.03_PT028H.grib2 2026-04-28 06:15 1.1M
20260428T00Z_MSC_CAPS_WindDir_IsbL-0350_RLatLon0.03_PT028H.grib2 2026-04-28 06:15 1.1M
20260428T00Z_MSC_CAPS_WindDir_IsbL-0400_RLatLon0.03_PT028H.grib2 2026-04-28 06:15 1.1M
20260428T00Z_MSC_CAPS_WindDir_IsbL-0450_RLatLon0.03_PT028H.grib2 2026-04-28 06:15 1.2M
20260428T00Z_MSC_CAPS_WindDir_IsbL-0500_RLatLon0.03_PT028H.grib2 2026-04-28 06:15 1.2M
20260428T00Z_MSC_CAPS_WindDir_IsbL-0550_RLatLon0.03_PT028H.grib2 2026-04-28 06:15 1.2M
20260428T00Z_MSC_CAPS_WindDir_IsbL-0600_RLatLon0.03_PT028H.grib2 2026-04-28 06:15 1.3M
20260428T00Z_MSC_CAPS_WindDir_IsbL-0650_RLatLon0.03_PT028H.grib2 2026-04-28 06:15 1.3M
20260428T00Z_MSC_CAPS_WindDir_IsbL-0700_RLatLon0.03_PT028H.grib2 2026-04-28 06:15 1.4M
20260428T00Z_MSC_CAPS_WindDir_IsbL-0750_RLatLon0.03_PT028H.grib2 2026-04-28 06:15 1.5M
20260428T00Z_MSC_CAPS_WindDir_IsbL-0800_RLatLon0.03_PT028H.grib2 2026-04-28 06:15 1.6M
20260428T00Z_MSC_CAPS_WindDir_IsbL-0850_RLatLon0.03_PT028H.grib2 2026-04-28 06:15 1.8M
20260428T00Z_MSC_CAPS_WindDir_IsbL-0875_RLatLon0.03_PT028H.grib2 2026-04-28 06:15 1.9M
20260428T00Z_MSC_CAPS_WindDir_IsbL-0900_RLatLon0.03_PT028H.grib2 2026-04-28 06:15 2.0M
20260428T00Z_MSC_CAPS_WindDir_IsbL-0925_RLatLon0.03_PT028H.grib2 2026-04-28 06:15 2.0M
20260428T00Z_MSC_CAPS_WindDir_IsbL-0950_RLatLon0.03_PT028H.grib2 2026-04-28 06:15 2.1M
20260428T00Z_MSC_CAPS_WindDir_IsbL-0970_RLatLon0.03_PT028H.grib2 2026-04-28 06:15 2.1M
20260428T00Z_MSC_CAPS_WindDir_IsbL-0985_RLatLon0.03_PT028H.grib2 2026-04-28 06:15 2.2M
20260428T00Z_MSC_CAPS_WindDir_IsbL-1000_RLatLon0.03_PT028H.grib2 2026-04-28 06:15 2.3M
20260428T00Z_MSC_CAPS_WindDir_IsbL-1015_RLatLon0.03_PT028H.grib2 2026-04-28 06:15 2.3M
20260428T00Z_MSC_CAPS_WindGust-Max_AGL-10m_RLatLon0.03_PT028H.grib2 2026-04-28 06:15 2.3M
20260428T00Z_MSC_CAPS_WindGust-Min_AGL-10m_RLatLon0.03_PT028H.grib2 2026-04-28 06:15 2.3M
20260428T00Z_MSC_CAPS_WindGust_AGL-10m_RLatLon0.03_PT028H.grib2 2026-04-28 06:15 2.5M
20260428T00Z_MSC_CAPS_WindSpeed_AGL-10m_RLatLon0.03_PT028H.grib2 2026-04-28 06:15 2.1M
20260428T00Z_MSC_CAPS_WindSpeed_AGL-120m_RLatLon0.03_PT028H.grib2 2026-04-28 06:15 1.2M
20260428T00Z_MSC_CAPS_WindSpeed_AGL-40m_RLatLon0.03_PT028H.grib2 2026-04-28 06:15 1.2M
20260428T00Z_MSC_CAPS_WindSpeed_AGL-80m_RLatLon0.03_PT028H.grib2 2026-04-28 06:15 1.2M
20260428T00Z_MSC_CAPS_WindSpeed_IsbL-0050_RLatLon0.03_PT028H.grib2 2026-04-28 06:15 1.0M
20260428T00Z_MSC_CAPS_WindSpeed_IsbL-0100_RLatLon0.03_PT028H.grib2 2026-04-28 06:15 1.0M
20260428T00Z_MSC_CAPS_WindSpeed_IsbL-0150_RLatLon0.03_PT028H.grib2 2026-04-28 06:15 1.1M
20260428T00Z_MSC_CAPS_WindSpeed_IsbL-0175_RLatLon0.03_PT028H.grib2 2026-04-28 06:15 1.1M
20260428T00Z_MSC_CAPS_WindSpeed_IsbL-0200_RLatLon0.03_PT028H.grib2 2026-04-28 06:15 1.2M
20260428T00Z_MSC_CAPS_WindSpeed_IsbL-0225_RLatLon0.03_PT028H.grib2 2026-04-28 06:15 946K
20260428T00Z_MSC_CAPS_WindSpeed_IsbL-0250_RLatLon0.03_PT028H.grib2 2026-04-28 06:15 966K
20260428T00Z_MSC_CAPS_WindSpeed_IsbL-0275_RLatLon0.03_PT028H.grib2 2026-04-28 06:15 972K
20260428T00Z_MSC_CAPS_WindSpeed_IsbL-0300_RLatLon0.03_PT028H.grib2 2026-04-28 06:15 1.0M
20260428T00Z_MSC_CAPS_WindSpeed_IsbL-0350_RLatLon0.03_PT028H.grib2 2026-04-28 06:15 1.0M
20260428T00Z_MSC_CAPS_WindSpeed_IsbL-0400_RLatLon0.03_PT028H.grib2 2026-04-28 06:15 1.0M
20260428T00Z_MSC_CAPS_WindSpeed_IsbL-0450_RLatLon0.03_PT028H.grib2 2026-04-28 06:15 1.3M
20260428T00Z_MSC_CAPS_WindSpeed_IsbL-0500_RLatLon0.03_PT028H.grib2 2026-04-28 06:15 1.3M
20260428T00Z_MSC_CAPS_WindSpeed_IsbL-0550_RLatLon0.03_PT028H.grib2 2026-04-28 06:15 1.3M
20260428T00Z_MSC_CAPS_WindSpeed_IsbL-0600_RLatLon0.03_PT028H.grib2 2026-04-28 06:15 1.4M
20260428T00Z_MSC_CAPS_WindSpeed_IsbL-0650_RLatLon0.03_PT028H.grib2 2026-04-28 06:15 1.4M
20260428T00Z_MSC_CAPS_WindSpeed_IsbL-0700_RLatLon0.03_PT028H.grib2 2026-04-28 06:15 1.5M
20260428T00Z_MSC_CAPS_WindSpeed_IsbL-0750_RLatLon0.03_PT028H.grib2 2026-04-28 06:15 1.5M
20260428T00Z_MSC_CAPS_WindSpeed_IsbL-0800_RLatLon0.03_PT028H.grib2 2026-04-28 06:15 1.6M
20260428T00Z_MSC_CAPS_WindSpeed_IsbL-0850_RLatLon0.03_PT028H.grib2 2026-04-28 06:15 1.6M
20260428T00Z_MSC_CAPS_WindSpeed_IsbL-0875_RLatLon0.03_PT028H.grib2 2026-04-28 06:15 1.7M
20260428T00Z_MSC_CAPS_WindSpeed_IsbL-0900_RLatLon0.03_PT028H.grib2 2026-04-28 06:15 1.7M
20260428T00Z_MSC_CAPS_WindSpeed_IsbL-0925_RLatLon0.03_PT028H.grib2 2026-04-28 06:15 1.8M
20260428T00Z_MSC_CAPS_WindSpeed_IsbL-0950_RLatLon0.03_PT028H.grib2 2026-04-28 06:15 1.8M
20260428T00Z_MSC_CAPS_WindSpeed_IsbL-0970_RLatLon0.03_PT028H.grib2 2026-04-28 06:15 1.8M
20260428T00Z_MSC_CAPS_WindSpeed_IsbL-0985_RLatLon0.03_PT028H.grib2 2026-04-28 06:15 2.0M
20260428T00Z_MSC_CAPS_WindSpeed_IsbL-1000_RLatLon0.03_PT028H.grib2 2026-04-28 06:15 2.0M
20260428T00Z_MSC_CAPS_WindSpeed_IsbL-1015_RLatLon0.03_PT028H.grib2 2026-04-28 06:15 2.1M
20260428T00Z_MSC_CAPS_WindU_AGL-10m_RLatLon0.03_PT028H.grib2 2026-04-28 06:15 1.5M
20260428T00Z_MSC_CAPS_WindU_AGL-120m_RLatLon0.03_PT028H.grib2 2026-04-28 06:15 886K
20260428T00Z_MSC_CAPS_WindU_AGL-40m_RLatLon0.03_PT028H.grib2 2026-04-28 06:15 918K
20260428T00Z_MSC_CAPS_WindU_AGL-80m_RLatLon0.03_PT028H.grib2 2026-04-28 06:15 891K
20260428T00Z_MSC_CAPS_WindU_IsbL-0050_RLatLon0.03_PT028H.grib2 2026-04-28 06:15 937K
20260428T00Z_MSC_CAPS_WindU_IsbL-0100_RLatLon0.03_PT028H.grib2 2026-04-28 06:15 1.0M
20260428T00Z_MSC_CAPS_WindU_IsbL-0150_RLatLon0.03_PT028H.grib2 2026-04-28 06:15 712K
20260428T00Z_MSC_CAPS_WindU_IsbL-0175_RLatLon0.03_PT028H.grib2 2026-04-28 06:15 852K
20260428T00Z_MSC_CAPS_WindU_IsbL-0200_RLatLon0.03_PT028H.grib2 2026-04-28 06:15 867K
20260428T00Z_MSC_CAPS_WindU_IsbL-0225_RLatLon0.03_PT028H.grib2 2026-04-28 06:15 888K
20260428T00Z_MSC_CAPS_WindU_IsbL-0250_RLatLon0.03_PT028H.grib2 2026-04-28 06:15 910K
20260428T00Z_MSC_CAPS_WindU_IsbL-0275_RLatLon0.03_PT028H.grib2 2026-04-28 06:15 916K
20260428T00Z_MSC_CAPS_WindU_IsbL-0300_RLatLon0.03_PT028H.grib2 2026-04-28 06:15 923K
20260428T00Z_MSC_CAPS_WindU_IsbL-0350_RLatLon0.03_PT028H.grib2 2026-04-28 06:15 937K
20260428T00Z_MSC_CAPS_WindU_IsbL-0400_RLatLon0.03_PT028H.grib2 2026-04-28 06:15 941K
20260428T00Z_MSC_CAPS_WindU_IsbL-0450_RLatLon0.03_PT028H.grib2 2026-04-28 06:15 959K
20260428T00Z_MSC_CAPS_WindU_IsbL-0500_RLatLon0.03_PT028H.grib2 2026-04-28 06:15 1.0M
20260428T00Z_MSC_CAPS_WindU_IsbL-0550_RLatLon0.03_PT028H.grib2 2026-04-28 06:15 910K
20260428T00Z_MSC_CAPS_WindU_IsbL-0600_RLatLon0.03_PT028H.grib2 2026-04-28 06:15 932K
20260428T00Z_MSC_CAPS_WindU_IsbL-0650_RLatLon0.03_PT028H.grib2 2026-04-28 06:15 1.2M
20260428T00Z_MSC_CAPS_WindU_IsbL-0700_RLatLon0.03_PT028H.grib2 2026-04-28 06:15 1.3M
20260428T00Z_MSC_CAPS_WindU_IsbL-0750_RLatLon0.03_PT028H.grib2 2026-04-28 06:15 1.0M
20260428T00Z_MSC_CAPS_WindU_IsbL-0800_RLatLon0.03_PT028H.grib2 2026-04-28 06:15 1.1M
20260428T00Z_MSC_CAPS_WindU_IsbL-0850_RLatLon0.03_PT028H.grib2 2026-04-28 06:15 1.3M
20260428T00Z_MSC_CAPS_WindU_IsbL-0875_RLatLon0.03_PT028H.grib2 2026-04-28 06:15 1.3M
20260428T00Z_MSC_CAPS_WindU_IsbL-0900_RLatLon0.03_PT028H.grib2 2026-04-28 06:15 1.3M
20260428T00Z_MSC_CAPS_WindU_IsbL-0925_RLatLon0.03_PT028H.grib2 2026-04-28 06:15 1.4M
20260428T00Z_MSC_CAPS_WindU_IsbL-0950_RLatLon0.03_PT028H.grib2 2026-04-28 06:15 1.4M
20260428T00Z_MSC_CAPS_WindU_IsbL-0970_RLatLon0.03_PT028H.grib2 2026-04-28 06:15 1.4M
20260428T00Z_MSC_CAPS_WindU_IsbL-0985_RLatLon0.03_PT028H.grib2 2026-04-28 06:15 1.4M
20260428T00Z_MSC_CAPS_WindU_IsbL-1000_RLatLon0.03_PT028H.grib2 2026-04-28 06:15 1.4M
20260428T00Z_MSC_CAPS_WindU_IsbL-1015_RLatLon0.03_PT028H.grib2 2026-04-28 06:15 1.4M
20260428T00Z_MSC_CAPS_WindV_AGL-10m_RLatLon0.03_PT028H.grib2 2026-04-28 06:15 2.0M
20260428T00Z_MSC_CAPS_WindV_AGL-120m_RLatLon0.03_PT028H.grib2 2026-04-28 06:15 1.1M
20260428T00Z_MSC_CAPS_WindV_AGL-40m_RLatLon0.03_PT028H.grib2 2026-04-28 06:15 1.2M
20260428T00Z_MSC_CAPS_WindV_AGL-80m_RLatLon0.03_PT028H.grib2 2026-04-28 06:15 1.2M
20260428T00Z_MSC_CAPS_WindV_IsbL-0050_RLatLon0.03_PT028H.grib2 2026-04-28 06:15 941K
20260428T00Z_MSC_CAPS_WindV_IsbL-0100_RLatLon0.03_PT028H.grib2 2026-04-28 06:15 803K
20260428T00Z_MSC_CAPS_WindV_IsbL-0150_RLatLon0.03_PT028H.grib2 2026-04-28 06:15 919K
20260428T00Z_MSC_CAPS_WindV_IsbL-0175_RLatLon0.03_PT028H.grib2 2026-04-28 06:15 721K
20260428T00Z_MSC_CAPS_WindV_IsbL-0200_RLatLon0.03_PT028H.grib2 2026-04-28 06:15 864K
20260428T00Z_MSC_CAPS_WindV_IsbL-0225_RLatLon0.03_PT028H.grib2 2026-04-28 06:15 884K
20260428T00Z_MSC_CAPS_WindV_IsbL-0250_RLatLon0.03_PT028H.grib2 2026-04-28 06:15 909K
20260428T00Z_MSC_CAPS_WindV_IsbL-0275_RLatLon0.03_PT028H.grib2 2026-04-28 06:15 913K
20260428T00Z_MSC_CAPS_WindV_IsbL-0300_RLatLon0.03_PT028H.grib2 2026-04-28 06:15 922K
20260428T00Z_MSC_CAPS_WindV_IsbL-0350_RLatLon0.03_PT028H.grib2 2026-04-28 06:15 937K
20260428T00Z_MSC_CAPS_WindV_IsbL-0400_RLatLon0.03_PT028H.grib2 2026-04-28 06:15 942K
20260428T00Z_MSC_CAPS_WindV_IsbL-0450_RLatLon0.03_PT028H.grib2 2026-04-28 06:15 960K
20260428T00Z_MSC_CAPS_WindV_IsbL-0500_RLatLon0.03_PT028H.grib2 2026-04-28 06:15 869K
20260428T00Z_MSC_CAPS_WindV_IsbL-0550_RLatLon0.03_PT028H.grib2 2026-04-28 06:15 906K
20260428T00Z_MSC_CAPS_WindV_IsbL-0600_RLatLon0.03_PT028H.grib2 2026-04-28 06:15 930K
20260428T00Z_MSC_CAPS_WindV_IsbL-0650_RLatLon0.03_PT028H.grib2 2026-04-28 06:15 956K
20260428T00Z_MSC_CAPS_WindV_IsbL-0700_RLatLon0.03_PT028H.grib2 2026-04-28 06:15 1.3M
20260428T00Z_MSC_CAPS_WindV_IsbL-0750_RLatLon0.03_PT028H.grib2 2026-04-28 06:15 1.3M
20260428T00Z_MSC_CAPS_WindV_IsbL-0800_RLatLon0.03_PT028H.grib2 2026-04-28 06:15 1.1M
20260428T00Z_MSC_CAPS_WindV_IsbL-0850_RLatLon0.03_PT028H.grib2 2026-04-28 06:15 1.2M
20260428T00Z_MSC_CAPS_WindV_IsbL-0875_RLatLon0.03_PT028H.grib2 2026-04-28 06:15 1.5M
20260428T00Z_MSC_CAPS_WindV_IsbL-0900_RLatLon0.03_PT028H.grib2 2026-04-28 06:15 1.6M
20260428T00Z_MSC_CAPS_WindV_IsbL-0925_RLatLon0.03_PT028H.grib2 2026-04-28 06:15 1.6M
20260428T00Z_MSC_CAPS_WindV_IsbL-0950_RLatLon0.03_PT028H.grib2 2026-04-28 06:15 1.7M
20260428T00Z_MSC_CAPS_WindV_IsbL-0970_RLatLon0.03_PT028H.grib2 2026-04-28 06:15 1.7M
20260428T00Z_MSC_CAPS_WindV_IsbL-0985_RLatLon0.03_PT028H.grib2 2026-04-28 06:15 1.7M
20260428T00Z_MSC_CAPS_WindV_IsbL-1000_RLatLon0.03_PT028H.grib2 2026-04-28 06:15 1.9M
20260428T00Z_MSC_CAPS_WindV_IsbL-1015_RLatLon0.03_PT028H.grib2 2026-04-28 06:15 2.0M